Location: Cowley
(49.5667°N, 114.0667°W)
Time: 18:18:42
(UTC+00:00)

ISS - Pass Details

Date: 07 December 2021
Orbit: 413 x 422 km, 51.6° (Epoch: 27 January)

Event Time Altitude Azimuth Distance (km) Brightness Sun altitude
Rises 00:32:08 0° 289° (WNW) 2,390 0.9 -8.6°
Reaches altitude 10° 00:34:17 10° 285° (WNW) 1,520 -0.1 -8.9°
Maximum altitude 00:37:37 54° 207° (SSW) 520 -3.0 -9.4°
Drops below altitude 10° 00:40:56 10° 129° (SE) 1,507 -1.2 -9.9°
Enters shadow 00:42:57 - 125° (SE) 2,325 -0.3 -10.2°
